This is the latest recevied weather packets stored in our database for station/object SP1BMW-13. If no packets are shown the sender has not sent any weather packets the latest 10 day(s).
| Time | Temp. | Humidity | Pressure | Rain* | Wind** | Luminosity | Snow |
|---|---|---|---|---|---|---|---|
| 1787746153 | 23.89° C | 48% | 1021.2 hPa | 0 mm | 1.34 m/s, 37° | 690 W/m² | - |
| 1787746094 | 23.89° C | 48% | 1021.4 hPa | 0 mm | 0.45 m/s, 236° | 715 W/m² | - |
| 1787746033 | 23.89° C | 48% | 1021.2 hPa | 0 mm | 0.45 m/s, 74° | 178 W/m² | - |
| 1787745974 | 23.89° C | 45% | 1021.3 hPa | 0 mm | 1.34 m/s, 47° | 290 W/m² | - |
| 1787745914 | 23.89° C | 46% | 1021.2 hPa | 0 mm | 1.79 m/s, 24° | 201 W/m² | - |
| 1787745854 | 23.89° C | 46% | 1021.2 hPa | 0 mm | 1.34 m/s, 50° | 701 W/m² | - |
| 1787745794 | 23.89° C | 50% | 1021.4 hPa | 0 mm | 0.89 m/s, 37° | 205 W/m² | - |
| 1787745734 | 23.89° C | 48% | 1021.2 hPa | 0 mm | 0.89 m/s, 46° | 719 W/m² | - |
| 1787745674 | 23.33° C | 47% | 1021.2 hPa | 0 mm | 0.89 m/s, 63° | 380 W/m² | - |
| 1787745614 | 23.33° C | 49% | 1021.1 hPa | 0 mm | 0.89 m/s, 111° | 707 W/m² | - |
| 1787745554 | 23.33° C | 47% | 1021.3 hPa | 0 mm | 1.79 m/s, 48° | 722 W/m² | - |
| 1787745494 | 23.33° C | 48% | 1021.2 hPa | 0 mm | 0.89 m/s, 54° | 722 W/m² | - |
| 1787745434 | 23.33° C | 49% | 1021.3 hPa | 0 mm | 1.34 m/s, 160° | 228 W/m² | - |
| 1787745374 | 23.33° C | 47% | 1021.2 hPa | 0 mm | 1.79 m/s, 28° | 458 W/m² | - |
| 1787745314 | 23.33° C | 48% | 1021.3 hPa | 0 mm | 2.68 m/s, 60° | 716 W/m² | - |
| 1787745254 | 23.33° C | 48% | 1021.2 hPa | 0 mm | 2.24 m/s, 23° | 709 W/m² | - |
| 1787745194 | 23.33° C | 48% | 1021.3 hPa | 0 mm | 0.89 m/s, 45° | 702 W/m² | - |
| 1787745134 | 23.33° C | 48% | 1021.3 hPa | 0 mm | 2.24 m/s, 29° | 696 W/m² | - |
| 1787745074 | 23.33° C | 47% | 1021.3 hPa | 0 mm | 1.79 m/s, 71° | 176 W/m² | - |
| 1787745014 | 23.33° C | 47% | 1021.1 hPa | 0 mm | 0.45 m/s, 143° | 146 W/m² | - |
| 1787744954 | 23.89° C | 49% | 1021.3 hPa | 0 mm | 0 m/s | 145 W/m² | - |
| 1787744894 | 23.89° C | 44% | 1021.3 hPa | 0 mm | 1.79 m/s, 53° | 169 W/m² | - |
| 1787744834 | 23.89° C | 47% | 1021.3 hPa | 0 mm | 1.79 m/s, 51° | 174 W/m² | - |
| 1787744774 | 23.89° C | 47% | 1021.5 hPa | 0 mm | 1.34 m/s, 130° | 707 W/m² | - |
| 1787744714 | 23.89° C | 47% | 1021.2 hPa | 0 mm | 0.89 m/s, 108° | 725 W/m² | - |
* Rain latest hour (hover to see other rain measurements)
** Current wind speed in m/s (hover to see current wind gust speed)